Location: Oberwangen
(47.4286°N, 8.9679°E)
Time: 11:21:20
(UTC+00:00)

Cosmos 1953 Rocket - Pass Details

Date: 27 October 2021
Orbit: 604 x 635 km, 82.5° (Epoch: 26 November)

Event Time Altitude Azimuth Distance (km) Brightness Sun altitude
Rises 17:34:49 0° 359° (N) 2,943 7.0 -14.1°
Reaches altitude 10° 17:37:20 10° 11° (N) 2,027 6.0 -14.5°
Maximum altitude 17:41:14 28° 71° (ENE) 1,181 4.4 -15.2°
Enters shadow 17:42:09 26° 93° (E) 1,240 4.5 -15.3°
